Location: Oriwa
(40.7500°S, 175.3333°E)
Time: 09:22:27
(UTC+00:00)

Cosmos 1371 Rocket - Pass Details

Date: 03 February 2023
Orbit: 754 x 788 km, 74.0° (Epoch: 19 March)

Event Time Altitude Azimuth Distance (km) Brightness Sun altitude
Rises 14:06:37 0° 199° (SSW) 3,260 7.9 -28.7°
Reaches altitude 10° 14:09:00 10° 198° (SSW) 2,331 7.0 -28.5°
Enters shadow 14:14:00 78° 165° (SSE) 801 4.0 -28.1°
